Theta_e
293 290 285 285 286 286 285 284 284 287 286 285 286 287 289 292 290 290 291 290 291 291 294 293 293 294 293 292 291 291 290 290 290 290 290 290 290 291 292 292 292 292 292 292
291 285 286 286 286 285 286 285 285 287 286 286 286 285 289 291 292 292 292 291 291 291 292 292 291 292 293 292 292 292 291 291 292 292 293 292 291 292 292 292 292 292 292 292
287 285 285 284 285 284 285 283 282 281 286 287 285 289 287 289 292 294 295 294 293 291 290 290 291 291 292 293 294 294 294 294 293 293 293 292 292 292 291 291 292 292 293 293
285 284 283 284 283 284 283 285 284 284 284 284 286 284 291 288 287 290 294 294 292 292 291 290 290 291 291 292 294 294 295 294 293 293 292 291 289 288 290 291 292 292 293 292
283 283 283 283 282 284 284 285 284 284 283 282 284 284 293 285 286 288 290 295 295 293 292 290 290 291 292 293 293 293 293 293 293 292 292 292 291 292 292 292 292 293 292 293
282 283 283 283 284 284 286 284 285 284 284 285 280 281 288 290 289 291 293 292 296 296 293 292 292 292 292 293 293 293 292 292 293 293 292 292 291 291 291 291 291 292 292 292
282 281 282 282 283 285 285 285 287 286 285 284 280 280 288 293 293 291 291 293 294 297 295 292 291 291 291 292 293 292 292 291 292 292 292 292 292 292 291 291 291 291 291 291
284 283 281 281 281 280 282 282 284 279 281 282 276 279 288 292 292 291 293 293 294 294 295 293 292 292 291 291 292 292 291 290 291 291 291 292 292 292 292 292 292 291 292 292
285 283 280 279 281 281 282 283 280 278 269 276 283 285 288 292 291 291 290 291 292 293 294 294 293 292 292 292 291 292 292 291 291 291 291 291 291 291 291 292 292 292 292 292
286 282 278 278 280 280 280 281 281 283 278 279 283 282 284 289 290 290 291 291 292 293 294 294 294 293 293 293 292 292 292 292 291 291 291 291 291 291 291 292 291 291 292 292
285 284 280 278 278 281 276 278 278 280 280 280 279 285 292 289 290 289 292 293 294 294 294 295 294 294 294 294 293 292 292 291 291 291 291 291 291 291 291 290 291 291 291 291
286 288 283 283 279 279 281 281 282 282 280 278 276 278 291 291 289 286 289 292 293 295 295 296 296 296 294 293 293 293 292 291 291 292 291 291 291 291 290 290 290 291 291 291
285 287 282 284 278 278 276 279 280 278 281 278 278 281 287 286 287 286 287 290 292 294 295 296 295 295 294 294 293 293 293 292 292 291 291 290 290 290 290 290 290 290 290 290
285 285 283 279 283 284 279 277 278 279 278 279 280 282 287 289 289 290 290 290 291 294 294 294 294 296 296 294 294 293 293 293 293 292 290 290 290 290 290 290 290 290 290 289
284 280 282 283 284 283 280 280 281 277 278 276 280 281 286 288 289 290 291 291 290 290 290 291 292 292 294 295 294 293 293 293 293 292 291 290 290 290 290 289 289 289 289 289
280 280 279 277 282 282 279 282 282 282 282 281 280 279 286 288 289 288 289 289 288 289 289 290 291 291 290 291 292 293 293 293 293 291 290 291 290 289 289 288 288 288 288 288
280 280 279 275 277 276 275 279 280 282 284 284 280 285 289 288 287 287 288 288 287 287 288 288 289 290 290 291 291 291 292 293 292 290 290 290 289 289 288 288 288 287 287 287
282 279 279 275 276 270 282 287 286 282 283 285 285 286 287 288 289 290 288 287 287 287 287 288 290 290 292 292 292 292 291 290 290 290 289 289 288 287 288 287 286 286 286 285
285 282 278 275 276 280 282 285 284 282 283 288 286 286 288 289 286 287 290 290 289 289 289 290 291 291 291 290 290 289 288 288 287 287 287 287 287 286 286 285 285 285 285 284
276 279 277 277 273 271 282 286 283 284 277 288 287 287 286 286 281 285 290 290 290 290 288 288 289 289 288 287 287 286 285 285 285 286 286 286 286 285 285 285 284 284 284 284
274 273 272 273 272 277 285 286 286 275 278 287 288 286 284 282 285 288 289 289 291 289 288 288 287 286 286 287 286 284 284 283 286 285 285 285 285 285 285 285 284 283 283 281
276 275 274 274 271 270 284 283 278 283 287 286 285 285 286 287 288 288 289 289 290 289 288 289 288 288 288 286 285 283 283 285 284 284 283 284 284 284 284 284 282 281 279 277
273 278 275 276 276 283 286 283 285 287 285 285 285 286 286 286 287 288 289 290 290 289 288 288 287 287 287 287 285 283 285 284 283 282 282 283 282 283 283 282 279 278 277 275
278 281 276 276 280 281 283 284 285 285 284 286 287 287 286 285 287 287 288 288 288 288 288 287 287 286 286 286 286 286 285 282 281 281 281 280 280 280 280 280 279 277 276 274
277 278 275 275 278 279 281 283 285 284 285 285 285 285 285 285 284 285 286 287 286 286 286 286 286 286 285 286 287 287 283 280 280 280 279 278 278 278 277 277 277 276 276 276
277 274 272 271 278 279 280 283 284 282 283 284 283 283 284 284 283 284 285 286 285 284 285 285 285 285 285 286 287 287 283 279 279 278 277 277 276 275 274 274 273 277 277 278
Wind_Speed
5 7 10 8 7 4 1 5 9 9 4 13 6 12 12 14 16 16 15 14 14 14 12 13 14 15 14 13 12 12 11 11 8 6 7 6 7 6 5 4 6 5 5 5
4 6 4 3 2 3 4 4 6 6 2 9 13 23 16 14 19 18 16 16 15 14 14 15 16 16 16 16 15 15 14 14 12 9 8 7 7 6 6 6 6 6 5 4
7 3 1 4 4 7 2 4 5 6 14 6 15 7 3 8 15 16 18 16 16 17 16 16 17 18 17 18 18 17 17 17 15 14 8 7 7 6 7 8 7 7 7 6
4 2 3 3 2 7 4 4 5 8 10 4 9 5 4 5 11 17 17 19 18 19 18 18 18 19 19 18 17 18 17 17 15 16 11 12 10 10 9 8 7 8 9 9
3 1 3 5 4 3 4 7 7 7 3 3 3 2 1 3 7 17 20 21 21 19 19 20 21 20 19 17 16 15 17 17 17 15 15 11 13 8 8 8 10 9 9 10
3 1 0 2 2 4 9 7 6 3 3 3 3 3 7 3 3 3 6 19 21 22 21 20 19 19 17 17 17 17 18 18 17 16 16 16 15 12 9 9 8 8 8 8
4 3 2 2 3 4 6 8 4 2 3 2 3 5 12 10 8 7 3 9 17 19 20 19 20 19 18 20 20 18 20 20 19 19 18 18 17 15 14 12 10 11 9 9
3 2 2 1 2 2 2 3 4 7 5 7 2 8 3 4 5 4 9 9 8 17 17 18 19 19 19 20 21 20 20 21 21 20 20 17 18 12 12 14 11 10 10 10
5 2 4 3 2 3 2 2 2 0 2 3 4 6 12 2 6 9 12 9 13 14 16 18 18 19 20 21 23 23 22 21 21 22 19 20 18 19 15 16 13 11 12 10
3 7 1 3 2 2 3 2 2 3 5 7 5 4 7 5 3 3 5 8 11 12 14 14 16 19 19 20 20 22 23 24 23 22 20 18 20 19 18 15 17 16 13 14
1 2 4 2 9 7 5 5 5 3 4 5 7 4 5 8 2 3 5 5 6 10 13 13 14 16 17 18 20 21 22 24 23 23 21 21 20 20 18 17 17 17 16 15
2 2 6 10 4 4 3 4 7 5 5 5 5 11 17 1 5 6 9 8 7 7 9 11 13 13 15 18 19 22 21 22 24 22 22 23 21 20 20 20 20 18 18 17
1 2 7 3 3 1 5 6 7 2 2 11 11 13 1 2 2 5 9 14 11 9 12 12 9 10 14 16 18 20 21 23 22 20 22 22 22 22 24 22 21 20 19 18
1 1 7 15 17 16 10 6 7 7 7 17 25 39 17 23 24 19 15 16 16 16 18 15 9 10 11 13 15 17 19 20 20 20 22 22 22 25 23 21 21 20 20 18
1 10 12 19 20 18 25 18 17 16 18 20 39 34 20 27 27 25 27 30 21 20 16 16 11 10 11 10 11 14 16 17 19 20 20 23 23 22 21 21 21 20 19 18
2 5 4 25 10 17 33 18 21 24 27 32 31 40 20 24 23 24 25 20 17 16 14 12 11 8 9 11 12 12 14 15 15 18 21 21 21 20 20 21 21 19 19 18
6 4 4 16 3 9 21 13 19 19 19 20 25 28 20 23 22 24 21 9 12 14 9 7 10 10 9 9 10 12 13 12 13 15 18 19 19 20 21 20 20 21 21 18
9 7 6 11 4 17 14 5 9 19 22 15 20 21 23 22 24 18 11 18 17 9 8 7 7 8 12 11 12 11 11 12 11 13 17 18 18 19 18 18 20 20 18 19
18 11 7 8 15 20 32 17 16 18 36 6 16 23 21 18 9 9 15 11 7 4 7 7 7 8 9 11 13 10 11 11 8 14 14 15 15 16 16 17 18 16 15 14
2 5 10 9 12 20 18 9 6 11 28 2 16 20 12 9 12 11 15 7 12 10 8 9 9 9 7 11 8 9 12 9 13 14 13 12 12 14 15 15 14 12 11 11
2 3 14 16 18 15 14 13 4 16 26 13 12 13 12 11 13 22 16 19 20 11 9 8 8 9 10 11 6 10 11 13 15 8 8 8 10 12 13 11 11 12 11 11
14 12 9 8 14 27 10 14 12 16 20 20 18 18 22 26 29 31 31 26 18 9 7 11 14 16 11 8 7 11 11 16 7 7 8 9 9 9 8 11 9 12 13 13
12 13 17 18 21 26 31 29 28 22 18 19 27 33 30 27 28 30 28 22 17 18 13 9 11 14 15 12 8 12 15 9 7 6 9 8 7 9 8 11 12 11 12 12
17 17 21 25 23 25 27 29 30 32 33 28 24 21 25 28 27 26 20 15 15 17 19 17 13 14 17 15 15 14 13 5 6 9 7 4 6 5 8 8 10 11 11 11
16 21 26 29 31 32 31 29 22 25 26 25 27 27 25 25 27 25 26 19 16 18 19 16 16 15 17 19 18 16 10 6 7 8 7 8 8 11 8 7 8 9 8 12
15 23 21 24 31 30 27 27 29 31 30 27 29 29 28 25 26 25 22 17 21 18 21 18 18 17 17 20 19 16 10 9 9 9 8 8 8 8 9 9 7 16 16 17
Wind_Direction
19 52 46 38 43 103 248 301 312 335 16 326 274 276 273 207 226 230 224 216 217 215 199 191 195 194 194 199 196 195 188 180 179 180 186 184 188 186 181 169 163 159 149 139
203 55 18 330 330 295 326 326 1 302 307 320 309 294 263 210 219 223 224 223 216 211 202 195 194 196 198 200 200 199 201 196 199 201 200 200 192 196 188 180 184 177 158 147
40 76 333 318 333 340 48 5 1 323 315 93 313 268 194 218 208 218 226 227 220 214 211 204 203 201 201 205 204 205 205 202 202 207 200 204 194 196 195 197 191 187 183 180
50 92 309 306 343 331 323 17 316 327 352 351 12 289 261 181 219 225 223 223 224 214 210 208 207 209 207 208 206 207 207 208 207 206 205 206 201 203 204 198 194 189 194 194
68 178 327 305 12 336 351 330 322 319 345 289 37 287 241 136 247 235 225 223 220 222 216 212 208 207 208 207 207 209 211 213 213 210 212 212 219 220 202 199 193 197 199 206
64 66 273 59 283 277 312 285 247 286 307 326 123 29 290 186 241 358 244 216 218 212 214 215 214 208 209 205 204 203 206 211 211 212 212 219 216 219 212 204 198 200 203 205
165 128 107 292 264 188 282 298 306 338 354 317 106 269 259 285 271 242 262 218 210 216 209 209 208 207 208 207 203 205 206 210 208 208 212 214 218 216 217 206 203 202 202 204
304 286 187 71 9 335 33 351 323 309 307 305 23 233 243 266 212 244 236 234 229 208 210 212 211 209 210 209 207 209 209 210 207 209 211 213 215 217 217 213 205 211 207 207
300 265 106 54 334 313 70 209 106 61 113 274 230 260 277 252 269 243 233 225 221 219 213 215 213 213 210 210 211 207 210 215 212 212 210 211 212 214 215 214 212 211 210 206
20 281 62 89 242 142 295 26 240 152 287 283 222 260 247 269 261 244 249 251 242 230 221 218 218 220 222 218 213 212 211 212 213 212 213 213 212 212 212 212 213 212 211 209
274 212 114 172 205 194 163 200 214 318 249 266 292 240 233 253 308 323 319 316 262 220 226 223 224 224 225 223 219 217 217 214 214 214 211 213 214 213 212 213 213 211 208 205
57 237 259 278 80 9 321 286 193 221 201 243 280 267 259 311 313 333 300 291 286 277 256 235 225 222 223 227 223 223 221 219 220 216 215 215 214 212 213 214 213 208 208 206
92 241 309 240 156 87 216 195 230 354 289 235 261 247 236 105 294 297 280 288 282 264 260 269 247 229 232 229 228 227 227 226 225 218 217 218 216 213 216 214 211 209 207 206
161 260 243 262 289 328 259 207 225 210 248 272 247 276 263 281 286 287 271 260 265 274 283 295 274 254 247 241 236 235 236 233 232 226 222 220 218 218 216 213 211 209 206 203
353 267 259 262 276 286 276 273 267 230 242 248 275 268 287 286 294 296 292 287 293 287 287 288 294 271 271 259 251 247 246 240 234 231 227 226 225 223 219 217 212 209 205 204
91 279 331 282 259 266 275 278 272 259 256 256 259 269 275 282 281 278 277 287 284 288 288 299 308 300 286 284 277 267 255 246 242 240 237 231 229 225 224 219 212 205 203 200
186 233 259 271 68 314 275 234 241 261 249 246 256 265 287 273 262 263 279 280 290 291 284 296 309 307 293 281 278 274 272 260 246 242 242 239 231 229 224 218 213 207 201 193
210 200 218 269 296 259 269 264 274 274 273 261 271 275 266 275 281 294 298 284 283 293 288 286 289 297 308 303 292 290 283 274 259 248 242 240 235 231 225 219 218 210 201 193
230 237 252 245 240 273 285 284 274 261 281 312 283 282 281 293 335 308 272 295 323 285 268 261 279 279 297 291 297 293 286 271 259 252 247 241 234 234 227 220 215 210 200 191
89 272 245 244 253 257 286 7 34 322 283 258 272 278 322 341 300 305 344 343 319 295 260 279 286 287 274 277 281 279 277 267 254 256 247 241 232 230 224 219 207 201 191 183
175 220 229 242 257 263 286 311 324 257 280 329 327 323 325 307 293 301 299 296 298 291 283 260 258 260 262 278 282 279 282 262 261 248 241 230 222 229 224 209 192 180 167 152
264 259 236 222 258 278 254 262 247 282 307 319 320 312 314 310 306 308 305 307 300 289 307 308 307 296 292 236 242 267 267 271 258 246 242 231 218 218 211 188 171 165 157 146
270 271 275 266 273 299 309 306 295 304 316 312 307 301 298 300 304 301 297 301 317 318 312 298 289 290 302 295 224 268 269 255 239 235 245 233 210 197 189 176 170 159 159 151
282 292 283 291 283 287 295 298 293 289 285 288 292 316 313 301 297 298 304 306 295 284 282 287 288 288 294 289 284 269 271 205 222 250 229 192 174 185 168 175 176 166 167 159
284 300 287 280 283 286 282 284 309 313 306 301 296 292 291 294 301 300 295 285 300 301 290 288 285 282 283 285 285 283 265 210 211 221 203 183 172 161 160 173 174 170 166 168
274 276 274 279 286 284 285 281 284 285 288 291 289 289 286 288 286 286 286 282 286 289 285 287 281 279 285 287 282 277 237 209 210 199 197 190 169 158 149 143 133 122 121 131